Change the Weather History Date:

Friday, December 7, 2012

  Actual Average Record
Temperature  
Mean Temperature 59 °F -  
Max Temperature 72 °F 68 °F 77 °F (1998)
Min Temperature 46 °F 42 °F 35 °F (2005)
Degree Days  
Heating Degree Days 6    
Growing Degree Days 9 (Base 50)    
Moisture  
Dew Point 45 °F    
Average Humidity 63    
Maximum Humidity 87    
Minimum Humidity 18    
Precipitation  
Precipitation 0.00 in - - ()
Sea Level Pressure  
Sea Level Pressure 29.95 in    
Wind  
Wind Speed 2 mph ()    
Max Wind Speed 13 mph    
Max Gust Speed -    
Visibility 2.0 miles    
Events      
Averages and records for this station are not official NWS values.
T = Trace of Precipitation, MM = Missing Value Source: Averaged Metar Reports

Daily Weather History Graph

Daily Weather History Graph

Search for Another Location

Airport or City:

Trip Planner

Search our weather history database for the weather conditions in past years. The results will help you decide how hot, cold, wet, or windy it might be!

Date:

Astronomy

Dec. 07, 2012 Rise Set
Actual Time 7:17 AM IST 5:27 PM IST
Civil Twilight 6:50 AM IST 5:53 PM IST
Nautical Twilight 6:20 AM IST 6:24 PM IST
Astronomical Twilight 5:50 AM IST 6:53 PM IST
Moon No Moon Rise 12:49 PM IST (12/7)
Length of Visible Light 11h 02m
Length of Day
10h 09m
Last Quarter, 43% of the Moon is Illuminated
Dec 7
Last Quarter
Dec 13
New
Dec 20
First Quarter
Dec 28
Full
Jan 5
Last Quarter

Hourly Weather History & Observations

Time (IST) Temp. Dew Point Humidity Pressure Visibility Wind Dir Wind Speed Gust Speed Precip Events Conditions
12:00 AM 51.8 °F 46.4 °F 82% 30.01 in 1.6 mi Calm Calm - N/A   Scattered Clouds
12:30 AM 51.8 °F 46.4 °F 82% 29.98 in 1.6 mi Calm Calm - N/A   Scattered Clouds
1:00 AM 51.8 °F 46.4 °F 82% 29.98 in 1.6 mi Calm Calm - N/A   Scattered Clouds
1:30 AM 51.8 °F 46.4 °F 82% 29.98 in 1.6 mi Calm Calm - N/A   Scattered Clouds
2:00 AM 50.0 °F 44.6 °F 82% 29.98 in 1.7 mi Calm Calm - N/A   Scattered Clouds
2:30 AM 51.8 °F 46.4 °F 82% 29.98 in 1.7 mi Variable 1.2 mph - N/A   Scattered Clouds
3:00 AM 50.0 °F 46.4 °F 87% 29.95 in 1.7 mi Calm Calm - N/A   Scattered Clouds
3:30 AM 50.0 °F 44.6 °F 82% 29.95 in 1.7 mi Calm Calm - N/A   Scattered Clouds
4:00 AM 50.0 °F 46.4 °F 87% 29.95 in 1.7 mi Calm Calm - N/A   Scattered Clouds
5:00 AM 50.0 °F 44.6 °F 82% 29.95 in 1.7 mi Calm Calm - N/A   Scattered Clouds
5:30 AM 49 °F 45 °F 82% 29.96 in 1 mi Calm Calm - -   Mist
5:30 AM 48.2 °F 44.6 °F 87% 29.95 in 1.6 mi Calm Calm - N/A   Scattered Clouds
6:00 AM 48.2 °F 44.6 °F 87% 29.95 in 1.6 mi Calm Calm - N/A   Scattered Clouds
7:00 AM 50.0 °F 44.6 °F 82% 29.98 in 1.6 mi Calm Calm - N/A   Mostly Cloudy
7:30 AM 50.0 °F 44.6 °F 82% 29.98 in 1.7 mi Calm Calm - N/A   Haze
8:00 AM 50.0 °F 46.4 °F 87% 29.98 in 1.7 mi Calm Calm - N/A   Haze
8:30 AM 52 °F 47 °F 78% 30.00 in 1 mi Calm Calm - -   Haze
8:30 AM 51.8 °F 46.4 °F 82% 29.98 in 1.6 mi Calm Calm - N/A   Haze
9:00 AM 53.6 °F 46.4 °F 77% 30.01 in 1.2 mi Variable 2.3 mph - N/A   Haze
9:30 AM 55.4 °F 48.2 °F 77% 29.98 in 1.2 mi Calm Calm - N/A   Haze
10:00 AM 57.2 °F 48.2 °F 72% 30.01 in 1.2 mi SW 5.8 mph - N/A   Haze
10:30 AM 60.8 °F 48.2 °F 63% 30.01 in 1.6 mi WSW 4.6 mph - N/A   Haze
11:30 AM 67 °F 45 °F 34% 29.98 in 1 mi West 5.8 mph - -   Smoke
11:30 AM 66.2 °F 44.6 °F 46% 29.98 in 1.9 mi West 5.8 mph - N/A   Smoke
12:00 PM 71.6 °F 39.2 °F 31% 29.98 in 2.5 mi NW 8.1 mph - N/A   Smoke
1:00 PM 71.6 °F 41.0 °F 33% 29.95 in 3.1 mi NW 9.2 mph - N/A   Smoke
1:30 PM 73.4 °F 41.0 °F 31% 29.95 in 3.7 mi Variable 8.1 mph - N/A   Scattered Clouds
2:00 PM 73.4 °F 39.2 °F 29% 29.92 in 3.7 mi NW 9.2 mph - N/A   Scattered Clouds
2:30 PM 75 °F 40 °F 18% 29.90 in 2 mi WNW 9.2 mph - -   Scattered Clouds
2:30 PM 75.2 °F 39.2 °F 27% 29.92 in 3.7 mi WNW 9.2 mph - N/A   Scattered Clouds
3:00 PM 75.2 °F 37.4 °F 25% 29.92 in 3.7 mi WNW 12.7 mph - N/A   Scattered Clouds
3:30 PM 75.2 °F 41.0 °F 29% 29.92 in 3.7 mi NW 6.9 mph - N/A   Scattered Clouds
4:00 PM 75.2 °F 41.0 °F 29% 29.92 in 3.7 mi NW 4.6 mph - N/A   Scattered Clouds
4:30 PM 73.4 °F 42.8 °F 33% 29.89 in 2.8 mi Variable 2.3 mph - N/A   Smoke
5:00 PM 71.6 °F 42.8 °F 35% 29.89 in 2.8 mi Variable 1.2 mph - N/A   Smoke
5:30 PM 68 °F 43 °F 29% 29.89 in 2 mi Calm Calm - -   Smoke
5:30 PM 68.0 °F 42.8 °F 40% 29.92 in 2.8 mi Calm Calm - N/A   Smoke
6:00 PM 64.4 °F 42.8 °F 45% 29.92 in 2.8 mi Calm Calm - N/A   Smoke
6:30 PM 60.8 °F 44.6 °F 55% 29.92 in 2.5 mi Calm Calm - N/A   Smoke
7:00 PM 59.0 °F 46.4 °F 63% 29.92 in 2.5 mi Calm Calm - N/A   Smoke
7:30 PM 57.2 °F 44.6 °F 63% 29.95 in 2.2 mi Calm Calm - N/A   Haze
8:00 PM 57.2 °F 44.6 °F 63% 29.95 in 2.2 mi Calm Calm - N/A   Haze
9:00 PM 57.2 °F 46.4 °F 67% 29.95 in 1.2 mi Calm Calm - N/A   Haze
9:30 PM 55.4 °F 48.2 °F 77% 29.95 in 1.2 mi Variable 1.2 mph - N/A   Haze
10:00 PM 55.4 °F 48.2 °F 77% 29.95 in 1.2 mi Variable 2.3 mph - N/A   Haze
10:30 PM 55.4 °F 48.2 °F 77% 29.95 in 1.2 mi Calm Calm - N/A   Haze
11:00 PM 53.6 °F 46.4 °F 77% 29.95 in 1.2 mi Calm Calm - N/A   Partly Cloudy
11:30 PM 51.8 °F 46.4 °F 82% 29.95 in 1.2 mi Calm Calm - N/A   Partly Cloudy